Weather History for Nadi, Fiji

Change the Weather History Date:

Wednesday, January 16, 2013

  Actual Average Record
Temperature  
Mean Temperature 84 °F -  
Max Temperature 91 °F 86 °F 91 °F (2013)
Min Temperature 77 °F 73 °F 71 °F (2004)
Cooling Degree Days 19    
Growing Degree Days 34 (Base 50)    
Moisture  
Dew Point 76 °F    
Average Humidity 79    
Maximum Humidity 100    
Minimum Humidity 57    
Precipitation  
Precipitation 0.00 in 0.40 in - ()
Sea Level Pressure  
Sea Level Pressure 29.65 in    
Wind  
Wind Speed 4 mph ()    
Max Wind Speed 17 mph    
Max Gust Speed -    
Visibility 12.0 miles    
Events      
Averages and records for this station are not official NWS values.
T = Trace of Precipitation, MM = Missing Value Source: Averaged Metar Reports

Daily Weather History Graph

Daily Weather History Graph

Search for Another Location

Airport:

Trip Planner

Search our weather history database for the weather conditions in past years. The results will help you decide how hot, cold, wet, or windy it might be!

Date:

Astronomy

Jan. 16, 2013 Rise Set
Actual Time 6:47 AM FJST 7:51 PM FJST
Civil Twilight 6:24 AM FJST 8:15 PM FJST
Nautical Twilight 5:56 AM FJST 8:43 PM FJST
Astronomical Twilight 5:27 AM FJST 9:11 PM FJST
Moon 10:44 AM FJST (1/16) 11:03 PM FJST (1/16)
Length of Visible Light 13h 51m
Length of Day
13h 04m
Waxing Crescent, 21% of the Moon is Illuminated
Jan 16
Waxing Crescent
Jan 19
First Quarter
Jan 27
Full
Feb 4
Last Quarter
Feb 10
New

Hourly Weather History & Observations

Time (FJST) Temp. Heat Index Dew Point Humidity Pressure Visibility Wind Dir Wind Speed Gust Speed Precip Events Conditions
12:00 AM 78.8 °F - 77.0 °F 94% 29.65 in 24.9 mi Calm Calm - N/A   Mostly Cloudy
1:00 AM 79 °F - 76 °F 89% 29.66 in 12 mi ESE 3.5 mph - -   Partly Cloudy
1:00 AM 78.8 °F - 77.0 °F 94% 29.65 in 24.9 mi ESE 3.5 mph - N/A   Mostly Cloudy
2:00 AM 77.0 °F - 77.0 °F 100% 29.65 in 24.9 mi Calm Calm - N/A   Scattered Clouds
3:00 AM 77.0 °F - 75.2 °F 94% 29.62 in 24.9 mi ESE 3.5 mph - N/A   Scattered Clouds
4:00 AM 78 °F - 76 °F 90% 29.64 in 12 mi ESE 3.5 mph - -   Partly Cloudy
4:00 AM 78.8 °F - 75.2 °F 89% 29.62 in 24.9 mi ESE 3.5 mph - N/A   Scattered Clouds
5:00 AM 78.8 °F - 77.0 °F 94% 29.62 in 24.9 mi SSE 3.5 mph - N/A   Scattered Clouds
6:00 AM 78.8 °F - 77.0 °F 94% 29.65 in 24.9 mi Calm Calm - N/A   Scattered Clouds
7:00 AM 78 °F - 75 °F 89% 29.67 in 12 mi Calm Calm - -   Partly Cloudy
7:00 AM 77.0 °F - 75.2 °F 94% 29.65 in 28.0 mi Calm Calm - N/A   Mostly Cloudy
8:00 AM 80.6 °F 87.1 °F 77.0 °F 89% 29.68 in 31.1 mi South 5.8 mph - N/A   Scattered Clouds
9:00 AM 84.2 °F 94.1 °F 77.0 °F 79% 29.65 in 31.1 mi SE 5.8 mph - N/A   Scattered Clouds
10:00 AM 86 °F - 76 °F 66% 29.68 in 31 mi ESE 4.6 mph - -   Partly Cloudy
10:00 AM 86.0 °F 96.9 °F 77.0 °F 74% 29.65 in 31.1 mi ESE 4.6 mph - N/A   Scattered Clouds
11:00 AM 87.8 °F 99.7 °F 77.0 °F 70% 29.65 in 31.1 mi SSE 5.8 mph - N/A   Scattered Clouds
12:00 PM 87.8 °F 99.7 °F 77.0 °F 70% 29.65 in 31.1 mi WSW 4.6 mph - N/A   Scattered Clouds
1:00 PM 89 °F - 77 °F 59% 29.64 in 31 mi SE 4.6 mph - -   Partly Cloudy
1:00 PM 89.6 °F 102.2 °F 77.0 °F 66% 29.62 in 31.1 mi SE 4.6 mph - N/A   Scattered Clouds
2:00 PM 89.6 °F 102.2 °F 77.0 °F 66% 29.62 in 31.1 mi NW 10.4 mph - N/A   Scattered Clouds
3:00 PM 91.4 °F 107.2 °F 78.8 °F 66% 29.62 in 31.1 mi SSW 17.3 mph - N/A   Scattered Clouds
4:00 PM 90 °F - 77 °F 57% 29.63 in 31 mi South 13.8 mph - -   Partly Cloudy
4:00 PM 89.6 °F 102.2 °F 77.0 °F 66% 29.62 in 31.1 mi South 13.8 mph - N/A   Scattered Clouds
5:00 PM 89.6 °F 99.8 °F 75.2 °F 62% 29.62 in 31.1 mi South 12.7 mph - N/A   Scattered Clouds
6:00 PM 87.8 °F 99.7 °F 77.0 °F 70% 29.62 in 31.1 mi South 11.5 mph - N/A   Scattered Clouds
7:00 PM 86 °F - 76 °F 65% 29.65 in 31 mi SSE 10.4 mph - -   Partly Cloudy
7:00 PM 86.0 °F 95.1 °F 75.2 °F 70% 29.62 in 31.1 mi SSE 10.4 mph - N/A   Scattered Clouds
8:00 PM 84.2 °F 92.3 °F 75.2 °F 74% 29.65 in 31.1 mi South 12.7 mph - N/A   Scattered Clouds
9:00 PM 82.4 °F 89.5 °F 75.2 °F 79% 29.65 in 28.0 mi SSE 8.1 mph - N/A   Partly Cloudy
10:00 PM 81 °F - 75 °F 78% 29.69 in 12 mi South 6.9 mph - -   Partly Cloudy
10:00 PM 80.6 °F 86.2 °F 75.2 °F 84% 29.68 in 28.0 mi South 6.9 mph - N/A   Partly Cloudy
11:00 PM 80.6 °F 86.2 °F 75.2 °F 84% 29.71 in 28.0 mi South 4.6 mph - N/A   Partly Cloudy